Regional Weather Roundup
Issued by NWS Sterling, VA

Home | Current Version | Previous Version | Graphics & Text | Print | Product List | Glossary On
Versions: 1 2 3 4 5 6 7 8 9 10 11 12 13 14 15 16 17 18 19 20 21 22 23 24 25 26 27 28 29 30 31 32 33 34 35 36 37 38 39 40 41 42 43 44 45 46 47 48 49 50
124
ASUS41 KLWX 291710
RWRLWX

REGIONAL WEATHER ROUNDUP
NATIONAL WEATHER SERVICE BALTIMORE MD/WASHINGTON DC
100 PM EDT FRI APR 29 2016

Note: "FAIR" indicates few or no clouds below 12,000 feet
with no significant weather and/or obstructions to visibility.
 TC=TEMPERATURE CELSIUS

 * =Non NWS site. Station does not report precipitation (e.g. rain,
    snow, etc.), thunder, or fog.

DCZ001-MDZ009-015-VAZ040>042-051-053>054-291800-
WASHINGTON METRO

CITY           SKY/WX    TMP DP  RH WIND       PRES   REMARKS
WASHINGTON NAT CLOUDY    52  48  86 E8        30.04F
DULLES         CLOUDY    50  47  89 E3        30.04F FOG
ANDREWS AFB    CLOUDY    51  49  92 E6        30.03F
FT BELVOIR     CLOUDY    52  48  84 VRB2      30.04F
QUANTICO       CLOUDY    54  49  83 SE5       30.05F
COLLEGE PARK*  CLOUDY    50  46  87 E5        30.04F
LEESBURG*      CLOUDY    50  50 100 SE3       30.05F
MANASSAS*      CLOUDY    52  52 100 CALM      30.04F FOG
GAITHERSBURG*  CLOUDY    48  45  87 CALM      30.08F

$$

MDZ006>007-011-014-291800-
BALTIMORE METRO

CITY           SKY/WX    TMP DP  RH WIND       PRES   REMARKS
BWI AIRPORT    CLOUDY    50  47  89 E7        30.04F
MD SCIENCE CTR   N/A     51  47  86 MISG      30.05F
MARTIN STATE   CLOUDY    52  52 100 CALM      30.07F
ANNAPOLIS      CLOUDY    51  48  89 MISG      30.04F
FORT MEADE*    CLOUDY    50  46  87 E6        30.07F

$$

MDZ012-015-019>023-291800-
MARYLAND EASTERN SHORE

CITY           SKY/WX    TMP DP  RH WIND       PRES   REMARKS
OCEAN CITY     CLOUDY    52  47  83 NE12      30.03F
SALISBURY      CLOUDY    52  50  93 NE10      30.03F FOG
CAMBRIDGE*     CLOUDY    52  50  93 NE6       30.03F
EASTON*        CLOUDY   N/A N/A N/A E6        30.08F HAZE

$$

MDZ017>025-291800-
SOUTHERN MARYLAND

CITY           SKY/WX    TMP DP  RH WIND       PRES   REMARKS
PATUXENT RIVER CLOUDY    53  49  86 NE7       30.04S
ST INIGOES     CLOUDY    54  51  90 NE5       30.03F
LEONARDTOWN*   CLOUDY    52  48  87 CALM      30.05F

$$

MDZ003>005-291800-
NORTH CENTRAL MARYLAND

CITY           SKY/WX    TMP DP  RH WIND       PRES   REMARKS
FREDERICK*     CLOUDY    48  48 100 E3        30.07F FOG
HAGERSTOWN APT CLOUDY    50  45  83 CALM      30.04S
WESTMINSTER*   CLOUDY    48  46  93 SE5       30.03F

$$

MDZ501>502-291800-
WESTERN MARYLAND

CITY           SKY/WX    TMP DP  RH WIND       PRES   REMARKS
OAKLAND*       CLOUDY    54  50  87 W8G16     30.00R
CUMBERLAND*    CLOUDY    52  48  87 CALM      30.06R

$$

VAZ025>031-291800-
SHENANDOAH VALLEY

CITY           SKY/WX    TMP DP  RH WIND       PRES   REMARKS
WINCHESTER*    CLOUDY    50  46  87 CALM      30.04R FOG
FRONT ROYAL*   CLOUDY    54  50  87 N3        30.03R
LURAY*         CLOUDY    55  54  94 CALM      30.01S
NEW MARKET*    CLOUDY    55  52  88 NE6       30.01R
STAUNTON*      CLOUDY    61  60  98 CALM      30.02R
WAYNESBORO*    FAIR      62  54  76 MISG      29.99S

$$

WVZ021-048>050-054>055-291800-
EASTERN WEST VIRGINIA PANHANDLE

CITY           SKY/WX    TMP DP  RH WIND       PRES   REMARKS
MARTINSBURG    CLOUDY    49  46  90 SE5       30.04S
PETERSBURG*    CLOUDY    56  52  86 CALM      30.01S

$$

VAZ036>039-050-291800-
CENTRAL FOOTHILLS

CITY           SKY/WX    TMP DP  RH WIND       PRES   REMARKS
CHARLOTTESVILL CLOUDY    55  50  83 VRB3      30.04R
CULPEPER*      CLOUDY    53  50  91 N3        30.06S FOG
ORANGE*        CLOUDY    52  52 100 CALM      30.06S
GORDONSVILLE*  CLOUDY    52  51  95 NE5       30.04S
WARRENTON*     CLOUDY    52  46  80 CALM      30.04S HAZE

$$

VAZ055>057-291800-
NORTH AND CENTRAL PIEDMONT

CITY           SKY/WX    TMP DP  RH WIND       PRES   REMARKS
FREDERICKSBRG* CLOUDY    54  53  99 CALM      30.03F
STAFFORD*      CLOUDY    52  49  88 CALM      30.08F

$$

NCZ024-NYZ072-PAZ021-071-VAZ022-071-291800-
OTHER REGIONAL OBSERVATIONS

CITY           SKY/WX    TMP DP  RH WIND       PRES   REMARKS
NEW YORK CITY  CLOUDY    57  21  24 E10G16    30.12F
PHILADELPHIA   CLOUDY    53  40  61 E9        30.08F
PITTSBURGH     CLOUDY    54  48  80 W7        29.98F
ROANOKE        FAIR      77  49  37 NW10G18   29.98F
RICHMOND       CLOUDY    57  52  83 CALM      30.02F
RALEIGH        PTSUNNY   72  61  68 VRB6      29.99S

$$

ANZ530>537-291800-
MARINE OBSERVATIONS

STATION/POSITION TIME  TEMP    WIND        PRES
                       AIR SEA DIR/SP/G
                 (UTC) (F)     (DEG/KT/KT) (MB)
THOMAS PT LIGHT  1700   50 57   50/  6/  7 1018.6F
BALT KEY BRIDGE  1600   48      70/  8/ 11 1018.3F
COVE POINT       1600   51      70/  7/  8 1018.0F
LEWISETTA        1600   53 60   80/  6/  9 1017.0F
SOLOMONS ISLAND  1600   52 59   60/  4/  7   N/A
PINEY POINT      1612          100/  6/  8   N/A

$$





USA.gov is the U.S. government's official web portal to all federal, state and local government web resources and services.